RH
15 14 13 13 13 13 14 13 13 13 13 13 13 13 12 13 13 13 13 13 13 13 13 13 13 12 12 12 12 13 13 14 15 15 17 18 19 19 20 21 21 21 21 21 21 21 21 22 22 22 21 21 20 20 19 18 16 15 14 14 15 17 20 25 27 26 24 27 29 31 31 31 31 31 30 31 32 30 25 27 30 33 34 37 40 42 40 35 33 32 32 31 31 32 33 33 34 35 35 33 32 32 34
14 14 14 13 14 14 15 15 15 15 14 14 14 14 14 14 14 14 14 14 14 14 15 15 15 14 14 14 14 15 15 16 17 18 19 20 21 22 22 23 23 23 23 23 23 23 23 23 23 22 21 21 20 20 19 18 17 16 15 15 16 18 20 25 28 28 27 27 29 31 31 31 31 30 30 30 31 31 27 28 30 32 33 35 36 35 33 32 32 31 31 31 31 31 31 31 32 33 34 33 32 30 30
14 14 13 13 14 14 15 15 15 16 16 16 16 16 16 16 15 16 16 16 16 16 16 16 16 16 16 16 16 17 17 18 19 20 21 22 22 23 24 24 24 24 24 24 24 24 23 23 22 21 20 19 20 20 20 19 17 16 15 16 17 20 22 27 29 30 31 27 28 30 31 31 31 30 28 28 29 30 29 27 29 32 32 32 32 32 32 32 32 31 30 30 30 30 30 29 29 30 31 31 30 29 27
13 13 13 13 13 14 15 15 15 16 16 16 16 16 16 16 17 17 16 17 17 17 17 17 17 17 17 17 18 18 19 19 20 21 22 22 23 23 24 24 24 24 24 24 24 23 23 22 21 19 18 18 19 18 18 17 16 15 15 15 17 20 24 26 29 31 31 30 29 29 31 31 31 30 29 27 28 30 31 28 28 30 32 32 32 32 32 32 31 31 30 30 30 30 30 29 29 29 29 28 28 27 27
13 13 12 12 13 13 14 14 15 15 15 15 16 16 17 17 17 17 17 17 17 17 17 17 17 17 18 18 18 19 19 20 20 21 22 23 23 23 24 24 24 23 23 24 24 23 23 21 20 19 18 17 17 17 16 15 15 14 13 14 15 19 25 27 28 29 29 28 28 29 31 31 31 31 31 29 28 29 32 29 27 27 31 31 32 32 32 32 31 30 30 29 29 29 29 29 29 30 29 28 27 27 28
14 13 13 12 12 13 13 14 14 15 15 15 16 16 16 16 17 17 17 17 17 17 17 17 17 18 18 18 18 19 20 20 21 22 22 23 23 24 24 24 23 23 23 23 23 23 22 21 20 19 18 17 16 16 16 15 15 14 13 12 14 18 26 28 28 28 26 26 28 31 31 30 31 32 32 32 29 28 30 31 29 27 28 30 31 32 32 32 32 31 30 28 28 28 28 29 29 29 29 28 27 26 27
15 14 14 13 13 13 13 14 14 15 15 15 15 16 16 16 17 17 17 17 17 17 17 17 17 18 18 18 19 19 20 21 21 22 22 23 23 23 24 23 23 23 22 22 22 22 22 21 20 19 18 16 16 16 16 15 14 14 13 12 14 17 23 25 26 26 26 24 26 29 32 29 30 31 32 32 32 30 27 31 31 29 26 29 30 31 31 32 32 32 31 29 28 27 27 29 29 29 29 28 26 26 27
16 16 15 15 14 14 14 14 14 14 15 15 16 16 16 17 17 17 18 18 18 18 18 18 18 18 18 18 19 19 20 21 21 22 23 23 23 23 24 23 23 23 22 22 22 21 21 21 20 19 17 16 16 16 15 14 14 14 13 13 13 16 22 23 24 25 27 28 26 27 31 31 29 28 30 31 32 32 30 29 30 31 28 27 28 30 30 31 31 31 31 30 29 29 28 29 30 30 29 28 27 27 28
17 17 17 16 15 15 14 14 14 15 15 15 16 16 17 17 18 18 18 18 18 18 19 19 19 18 19 19 19 19 20 20 21 22 23 23 23 23 23 23 23 23 22 22 21 21 21 20 19 18 17 16 16 15 15 14 14 14 14 13 13 15 20 21 23 24 24 28 28 27 29 31 29 27 29 30 31 32 32 30 30 31 32 29 27 27 28 29 29 29 30 30 30 29 29 29 30 30 30 29 29 29 29
19 18 18 17 16 16 15 15 15 15 15 15 15 16 16 17 18 18 19 19 19 19 19 19 19 19 19 19 19 20 20 20 21 21 22 22 23 23 23 23 23 23 23 22 21 21 20 19 18 17 16 16 15 15 15 15 14 14 14 13 13 14 19 20 22 23 23 26 26 26 28 31 29 26 27 29 30 30 31 32 31 30 31 31 30 28 28 29 29 29 29 30 29 29 29 28 28 29 29 29 29 29 29
20 20 19 18 17 17 16 16 16 16 15 15 15 15 16 17 17 18 18 18 18 18 19 19 19 19 19 20 20 20 20 20 20 20 21 21 22 22 23 23 23 23 23 22 21 21 20 19 18 17 16 16 15 15 15 15 15 14 14 13 13 13 15 20 21 21 22 24 24 23 25 27 26 25 25 28 29 29 29 31 32 32 30 31 32 31 30 29 29 29 29 29 28 28 28 28 28 27 27 27 28 28 27
21 21 20 19 18 17 17 17 17 16 16 16 16 16 16 17 17 18 18 18 18 18 18 18 18 18 19 19 19 19 19 20 20 20 20 20 21 21 22 22 23 23 22 22 21 20 19 18 18 17 16 16 16 16 16 16 15 15 14 14 13 14 17 19 20 21 21 22 22 21 21 23 24 25 25 28 29 29 28 30 31 32 31 31 32 31 30 28 28 27 26 25 25 25 26 26 26 26 26 26 26 26 25
22 21 20 20 19 18 18 17 17 17 17 17 17 17 17 17 17 18 18 18 18 18 17 17 17 18 18 18 19 19 19 19 19 20 20 20 20 20 21 21 22 22 21 21 20 20 19 18 17 17 17 17 17 17 16 16 16 16 15 14 14 16 22 21 21 20 20 20 20 20 21 23 25 27 29 29 28 29 29 28 28 28 29 29 29 28 26 25 25 24 22 21 21 20 21 21 22 22 23 23 23 22 21
22 22 21 20 19 19 18 18 18 17 17 17 17 17 17 18 18 19 19 19 19 18 18 18 18 18 18 18 19 19 19 20 20 20 20 20 20 20 21 21 21 21 20 20 20 20 19 18 18 17 18 18 18 18 18 17 17 17 16 16 16 19 25 23 21 20 19 19 18 19 23 23 26 29 32 29 28 26 27 25 24 24 25 25 25 25 24 23 23 21 20 18 17 17 16 16 16 17 17 18 18 17 16
22 22 22 21 20 19 19 19 18 18 18 17 17 18 18 18 19 19 20 20 20 20 20 19 19 19 19 19 20 20 20 20 20 21 21 21 21 21 21 21 21 20 20 20 20 20 19 19 18 18 18 19 19 19 19 18 18 18 17 17 18 21 26 25 22 20 19 19 19 21 28 24 26 29 31 28 26 25 25 24 23 23 24 24 24 24 23 22 21 19 17 16 15 15 15 14 14 14 14 14 14 13 13
23 22 22 21 20 20 19 19 19 19 18 18 18 18 18 18 19 19 20 20 20 21 21 21 21 21 21 21 21 21 21 22 22 22 22 22 22 22 21 21 21 21 20 20 20 20 20 20 19 19 19 19 19 19 19 19 19 18 18 18 20 23 27 27 24 21 20 19 20 24 31 26 26 28 31 27 24 23 24 24 25 25 25 25 24 23 22 20 19 17 15 15 15 14 14 14 14 14 14 13 13 13 12
24 23 22 21 21 20 20 20 20 19 19 18 18 18 19 19 19 20 20 20 20 21 21 21 22 22 22 22 22 22 23 23 23 23 23 23 23 23 22 22 22 21 21 20 21 21 21 21 20 20 20 20 20 20 20 20 19 19 19 19 20 24 29 29 26 23 21 19 20 24 31 28 27 28 31 25 22 22 22 22 23 23 23 22 21 20 19 18 17 16 15 15 15 14 14 14 14 14 14 13 13 13 13
24 23 23 22 21 21 20 20 20 20 19 19 19 19 19 20 20 20 20 20 20 20 21 21 22 22 22 23 23 23 23 23 23 24 24 24 24 24 23 23 23 22 22 21 21 21 22 22 22 21 21 20 20 20 20 20 20 19 19 19 21 25 31 30 28 26 23 21 20 22 28 27 25 25 26 22 21 20 19 19 19 19 19 18 18 18 17 16 16 15 15 15 15 15 15 15 15 14 14 14 13 13 13
24 23 23 22 21 21 21 21 20 20 20 20 20 20 20 20 21 21 21 21 21 21 21 21 22 22 22 23 23 23 23 24 24 24 24 24 24 24 24 24 24 23 23 23 23 23 23 23 23 23 22 22 21 21 21 20 20 20 19 19 21 26 31 31 30 28 25 23 21 21 23 22 22 22 21 20 19 18 17 16 16 16 16 16 16 16 16 15 15 15 15 15 15 15 15 15 15 15 14 14 14 14 13
23 22 22 22 21 21 20 20 21 20 20 20 21 21 21 21 21 21 21 21 21 21 21 22 22 22 22 23 23 23 24 24 24 24 24 24 24 24 24 24 24 24 24 23 24 24 24 24 24 24 23 23 22 21 21 21 21 20 20 19 21 25 31 31 30 28 28 27 25 23 21 21 21 21 20 18 18 17 16 16 16 16 16 16 16 16 16 16 16 15 15 16 16 16 15 15 15 15 15 14 14 14 14
21 21 21 21 21 20 20 21 21 20 20 21 21 21 21 22 22 22 22 22 22 22 22 22 22 23 23 23 23 24 24 24 24 24 25 24 24 24 24 24 24 24 24 24 24 24 24 24 24 24 24 24 23 22 22 22 21 20 20 19 22 26 31 30 29 28 28 28 27 25 22 20 20 20 18 17 17 17 17 16 16 16 16 16 16 16 16 16 16 16 16 15 16 15 15 15 15 15 15 14 14 14 14
20 20 20 20 20 20 20 21 21 21 20 21 21 22 22 22 22 22 23 23 23 23 23 23 23 23 23 23 24 24 24 24 24 24 24 24 24 24 24 24 24 23 23 24 24 24 24 24 24 24 24 24 24 23 22 22 22 21 20 20 21 25 31 30 29 29 28 28 28 26 23 21 19 18 17 17 17 17 17 17 16 16 16 16 16 16 16 16 16 16 16 16 16 16 15 15 15 15 14 14 14 14 14
20 20 20 20 19 20 20 21 21 21 21 21 21 22 22 22 23 23 23 23 23 23 24 24 24 24 24 24 24 24 24 24 24 24 24 24 24 24 24 24 24 23 23 23 23 24 24 24 24 24 24 24 24 23 23 22 22 21 21 20 20 23 30 30 30 29 29 28 28 27 25 22 19 18 17 17 17 17 17 17 16 16 16 16 16 16 16 16 16 16 16 16 16 16 15 15 15 15 15 15 14 14 14
20 20 19 19 19 20 20 21 21 21 21 21 21 22 22 23 23 23 23 23 24 24 24 24 24 24 24 25 25 25 25 25 25 25 25 25 25 24 24 24 24 24 23 23 23 23 24 23 24 24 24 24 24 23 23 22 22 21 21 20 20 22 28 29 30 29 29 29 28 27 25 23 21 19 18 18 17 17 17 17 16 16 16 16 16 16 16 16 16 16 16 16 16 16 16 15 15 15 15 15 15 15 15
21 21 20 20 20 20 20 21 21 21 21 21 21 21 22 22 23 23 23 24 24 24 24 24 24 25 25 25 25 25 25 25 25 25 25 25 25 25 25 24 24 24 24 24 23 23 23 23 23 23 23 24 23 23 23 23 22 21 21 20 19 20 25 28 30 30 30 29 28 27 25 24 22 21 19 18 18 17 17 17 16 16 16 16 16 16 16 16 16 16 16 16 16 16 16 15 15 15 15 15 15 15 15
21 21 21 21 21 21 21 21 21 21 21 21 21 21 22 22 22 23 23 24 23 24 24 24 24 25 25 25 25 25 26 26 26 25 25 25 25 25 25 25 25 25 24 24 24 23 23 23 23 23 23 23 23 23 23 22 22 21 21 20 19 20 22 26 29 31 31 30 28 27 25 24 23 22 21 19 18 17 16 16 16 16 16 16 16 16 16 16 16 17 17 16 16 16 16 16 16 15 15 15 15 15 15
23 22 22 22 22 21 21 21 21 22 21 21 21 21 21 22 22 23 23 24 24 24 24 24 24 25 25 25 25 25 26 26 26 26 26 26 25 25 25 25 25 25 25 24 24 24 23 23 23 23 23 23 23 23 23 22 22 21 20 20 19 19 19 22 26 29 30 30 29 27 25 24 23 23 22 20 19 17 16 16 16 16 16 16 16 16 16 16 16 17 17 17 16 16 16 16 16 16 16 16 16 16 16
24 24 24 23 23 22 22 22 22 22 22 21 21 21 21 21 22 22 22 23 24 24 24 24 24 24 25 25 25 25 26 26 26 26 26 25 25 25 25 25 25 25 25 25 25 25 24 24 23 23 23 23 23 23 23 22 22 21 20 19 19 18 19 20 22 25 28 28 28 27 26 24 24 23 22 21 19 18 16 16 15 16 16 16 16 16 16 16 16 17 17 17 17 17 16 16 16 16 16 16 16 16 16
24 24 25 25 24 24 23 23 22 22 22 21 21 21 21 21 21 22 22 23 23 24 24 24 24 24 25 25 25 25 25 25 25 25 25 25 25 25 25 25 25 25 25 26 26 25 25 25 24 23 23 23 23 23 23 22 22 21 20 19 19 18 18 19 20 21 25 25 26 26 25 24 23 23 22 21 20 18 17 16 16 15 16 16 16 16 17 17 17 17 17 17 17 17 17 17 17 17 16 16 16 16 16
25 26 26 26 26 25 25 24 24 23 22 21 21 21 21 21 22 22 22 23 23 24 24 25 25 25 24 24 24 24 25 24 24 24 25 24 24 24 24 24 25 25 25 26 26 26 26 26 25 25 24 23 23 23 23 23 22 22 21 20 19 18 18 18 19 20 22 23 23 24 24 23 23 22 21 20 20 19 18 17 16 15 15 16 16 16 17 17 17 17 17 17 17 17 17 17 17 17 17 17 17 17 17
28 28 28 28 27 27 27 26 25 24 23 22 21 21 22 22 22 23 23 23 24 24 25 25 25 25 25 25 25 25 24 24 24 24 24 24 24 24 24 24 25 25 25 26 26 26 26 26 26 26 26 25 24 23 23 23 23 22 22 21 20 19 18 18 18 19 19 21 22 22 22 22 22 21 21 20 20 20 19 18 17 16 16 16 16 16 16 17 17 17 17 17 17 17 17 17 17 17 17 17 17 17 18
29 29 29 29 29 29 28 28 27 26 24 23 22 22 23 23 24 24 24 24 25 25 26 26 26 26 26 26 26 26 25 25 25 25 25 25 25 24 24 25 25 25 26 26 26 26 26 26 27 27 27 26 25 24 24 23 23 23 23 22 21 20 19 18 18 18 19 20 20 21 22 21 21 21 21 21 20 20 20 19 18 17 16 16 16 16 16 17 17 17 17 17 17 17 17 17 17 17 17 17 17 17 18
29 29 29 29 29 29 29 29 28 28 26 25 24 24 24 24 24 25 25 25 26 26 26 26 26 27 27 27 27 27 27 27 27 26 26 26 25 25 25 25 25 26 26 26 26 26 26 27 27 27 27 27 26 26 25 24 24 23 23 23 22 21 20 19 18 18 18 19 20 21 21 21 21 21 21 21 21 21 20 20 19 19 18 17 16 16 16 16 17 17 17 17 17 17 17 17 17 18 18 18 17 18 18
29 29 29 29 28 28 29 29 29 28 28 27 26 25 24 24 25 25 25 26 26 26 27 27 27 27 27 27 27 27 28 28 28 28 27 27 26 26 26 26 26 26 26 27 27 27 27 27 27 28 28 28 27 27 26 25 25 24 24 24 23 23 21 20 19 19 19 19 19 20 21 21 21 21 21 21 21 21 21 21 20 20 19 18 17 17 16 16 17 17 17 17 17 17 17 17 17 18 18 18 18 18 18
30 30 30 29 29 28 28 27 27 27 28 27 27 26 26 25 25 25 25 25 26 26 27 27 28 28 27 27 27 27 27 28 28 28 28 27 27 27 26 26 26 27 27 27 27 27 27 27 28 28 29 29 29 28 28 27 26 25 25 24 24 23 23 21 20 19 19 19 19 20 20 21 21 21 22 22 22 22 21 21 21 21 21 20 19 18 17 17 17 17 17 17 17 17 18 17 18 18 18 18 18 18 18
31 31 31 30 30 29 27 27 26 26 27 27 27 27 27 27 27 26 26 26 26 26 27 28 28 29 29 29 28 28 28 28 28 28 28 27 27 27 27 26 26 27 27 27 27 27 27 27 28 29 29 29 30 29 29 28 28 27 26 25 25 24 24 23 22 21 20 20 19 20 20 20 21 21 22 22 22 22 22 22 22 22 21 21 20 20 19 18 18 17 17 17 17 17 18 18 18 18 18 18 18 18 18
31 31 31 30 30 29 28 27 27 27 27 27 28 28 28 28 28 28 27 27 27 27 27 28 29 29 30 30 30 30 29 29 28 28 27 27 27 27 26 26 26 26 26 27 28 28 28 28 28 29 30 30 30 30 30 30 30 29 28 27 26 26 25 24 23 22 21 20 20 20 20 21 21 21 22 22 22 22 22 22 22 22 22 22 22 21 20 19 18 18 17 18 17 18 18 18 18 18 18 18 18 18 18
31 31 31 30 30 29 28 28 28 28 29 29 29 29 29 29 29 29 29 29 29 28 28 29 29 29 29 30 30 30 29 29 29 28 27 26 26 26 25 26 26 26 26 27 28 28 28 28 28 29 29 30 31 31 31 31 31 31 30 29 28 27 26 25 25 23 22 21 21 21 21 21 21 21 22 22 22 23 23 23 23 23 23 23 23 22 21 20 19 19 18 18 18 18 18 19 18 18 18 18 18 18 18
32 32 32 32 31 30 29 29 29 30 30 30 30 31 31 31 31 31 31 30 30 30 30 30 30 30 30 29 29 29 29 29 29 29 28 28 27 27 27 27 27 27 27 28 28 29 29 29 29 29 29 30 31 31 32 33 32 32 32 31 30 29 28 27 26 25 24 22 22 21 21 21 21 22 22 22 23 23 23 23 24 24 24 24 23 23 22 21 21 20 19 19 19 19 19 19 19 19 19 19 19 19 19
33 33 33 33 33 32 32 32 32 32 32 32 32 32 32 32 32 32 32 32 32 32 32 32 33 32 32 32 31 31 31 31 31 31 30 30 30 30 30 30 30 30 30 30 30 30 30 29 29 29 30 30 31 32 33 33 34 34 34 33 32 31 30 29 27 26 25 24 23 22 21 21 22 22 23 23 23 23 23 24 24 24 24 24 24 24 23 22 22 21 21 20 20 20 20 20 20 20 20 20 19 19 19
32 32 33 33 33 34 34 34 34 34 34 34 34 34 34 33 33 32 32 32 33 33 33 34 34 34 34 34 34 34 33 33 33 33 33 32 32 32 33 33 33 32 32 32 31 31 31 30 30 30 30 31 32 32 33 33 34 35 35 35 35 34 32 31 29 28 27 26 24 23 22 22 22 22 23 23 23 24 24 24 24 24 25 24 24 24 24 23 23 22 22 21 21 21 21 21 21 21 21 21 20 20 20
31 31 32 33 33 34 35 35 36 36 36 37 36 36 36 35 35 34 34 34 34 34 34 35 35 36 36 36 35 35 35 35 34 34 34 34 34 34 34 35 35 34 34 34 33 33 32 31 31 31 31 31 32 32 32 33 34 35 36 36 37 36 35 34 32 30 29 28 26 25 24 23 23 22 23 23 24 24 25 25 25 25 25 25 25 24 24 24 24 23 23 23 23 22 23 23 23 23 22 22 22 22 21
30 31 31 32 33 33 34 36 37 37 38 38 38 38 38 38 37 37 36 36 36 35 36 36 37 37 37 37 36 36 36 36 36 35 35 35 35 36 36 36 36 36 36 35 35 34 33 33 32 32 32 32 32 32 32 33 34 35 36 37 38 38 38 37 35 33 31 30 29 27 26 25 24 23 23 23 24 25 25 25 26 26 25 25 25 25 25 24 24 24 24 24 24 24 24 24 24 24 24 23 23 23 23
31 31 32 32 32 33 34 35 36 37 38 38 39 39 39 39 39 39 38 38 38 38 38 38 38 39 39 38 38 38 37 37 37 37 37 37 38 37 37 37 37 37 37 36 36 35 34 34 33 33 33 33 33 33 33 34 35 35 36 38 38 39 39 39 38 37 35 33 31 30 28 27 25 24 24 24 24 25 26 26 27 26 26 26 26 25 25 25 25 24 25 25 25 25 25 25 25 25 25 25 25 24 24
31 31 31 31 32 33 34 35 36 37 38 38 38 39 39 39 40 40 40 40 40 40 40 40 40 41 41 40 40 39 39 39 39 39 40 40 40 39 39 39 38 38 38 37 37 36 35 35 35 34 34 34 34 34 34 35 35 36 37 38 39 40 40 41 41 40 39 37 35 33 31 30 28 26 25 25 25 25 26 27 27 27 27 27 26 26 25 25 25 25 25 25 25 25 25 26 26 26 26 26 26 25 25
30 30 30 30 30 31 32 33 34 36 36 37 37 37 37 38 38 39 40 41 41 42 42 42 42 42 42 42 41 41 41 41 41 41 41 41 41 41 41 40 40 39 39 39 38 38 37 37 36 36 35 35 35 35 35 36 36 36 37 38 39 40 41 42 42 42 42 41 39 37 35 33 31 29 28 26 26 26 26 27 28 28 28 28 28 27 26 26 25 25 25 25 25 25 25 26 26 27 27 27 26 26 26
30 30 30 29 29 30 31 32 34 34 35 35 35 35 35 35 36 37 38 40 41 42 42 43 43 43 43 43 43 43 43 42 43 43 43 43 43 43 42 42 41 41 41 41 40 40 40 39 38 38 37 36 36 36 36 36 36 36 37 37 38 39 40 41 42 43 44 43 42 41 39 36 34 32 30 29 27 26 27 27 28 29 30 29 29 28 27 26 26 25 25 25 25 25 25 26 26 27 27 27 27 27 27
30 30 30 30 30 30 31 32 33 34 34 34 34 34 33 33 34 34 35 37 38 40 41 42 42 43 43 44 44 44 44 44 44 44 44 44 44 44 43 43 43 43 42 42 42 42 41 41 40 39 39 38 38 38 37 37 37 37 37 37 38 39 39 41 42 43 44 44 44 44 43 40 38 35 33 31 30 28 28 28 28 29 30 31 31 30 29 28 27 26 25 25 25 25 25 26 26 27 27 28 28 28 27
30 30 31 31 31 31 31 32 33 33 34 34 34 34 33 33 33 33 34 35 36 37 38 39 40 41 42 43 43 43 44 44 45 45 45 45 45 44 44 44 44 43 43 42 42 41 41 41 41 41 41 40 40 40 40 40 39 39 39 39 39 39 40 41 42 43 44 45 46 46 46 44 42 40 37 34 32 31 29 29 29 30 31 32 32 32 31 30 28 27 26 26 26 26 26 26 26 26 27 28 28 28 28
29 29 29 29 29 30 30 31 32 33 33 33 33 33 33 33 33 33 34 34 35 36 37 38 38 39 41 42 43 43 44 44 45 46 46 46 45 45 45 44 44 43 43 43 43 42 42 42 42 42 42 43 43 42 42 42 42 42 41 41 41 40 40 41 42 43 44 45 46 47 48 47 46 45 42 39 36 33 31 30 30 30 31 32 33 33 33 32 31 29 28 27 27 26 26 26 26 26 27 28 28 29 29
28 27 27 27 27 28 28 29 31 32 32 33 33 33 33 34 34 34 34 35 36 37 39 40 39 39 40 42 42 42 43 44 45 46 46 46 46 46 47 46 46 46 46 46 46 46 46 46 46 46 46 46 46 45 45 45 45 45 45 44 44 43 42 43 43 44 44 46 47 49 50 51 50 50 48 45 41 37 34 32 31 31 31 33 33 34 35 34 33 32 30 29 28 28 27 27 27 27 27 28 28 29 29
27 27 26 26 26 27 27 29 30 31 32 32 32 33 33 34 34 34 34 36 37 38 40 42 42 42 41 42 43 43 44 45 46 47 48 48 49 50 51 50 50 50 49 50 49 49 49 49 49 49 49 49 49 49 48 48 48 48 48 48 48 48 47 47 46 46 46 47 48 50 52 54 55 55 54 51 48 44 39 36 33 32 32 33 34 35 36 36 36 35 33 31 30 29 29 28 28 28 28 28 29 29 29
27 27 27 27 27 27 28 30 31 31 33 33 33 33 33 34 34 35 36 37 38 40 42 43 44 44 44 44 44 46 46 48 49 50 51 54 55 56 55 55 55 54 53 52 51 50 49 50 50 50 50 50 50 51 51 51 51 51 51 52 52 52 53 53 52 51 51 50 51 52 54 56 58 60 60 59 56 52 47 42 38 35 33 33 34 35 37 38 38 37 36 34 33 32 31 30 30 29 29 29 29 29 30
27 27 27 28 29 30 31 31 32 32 33 34 34 34 35 35 36 36 38 39 41 42 44 44 45 45 46 46 48 49 50 52 54 56 58 59 60 60 58 56 56 55 53 52 50 48 46 45 45 45 45 46 47 48 50 51 52 53 54 54 55 55 56 57 57 57 56 55 55 55 56 58 61 63 66 65 64 61 56 50 45 40 37 35 35 36 37 38 39 40 39 37 36 34 33 32 31 31 31 30 30 30 30
28 28 29 29 30 31 31 32 32 33 34 34 35 35 36 36 37 37 39 41 42 43 44 45 46 47 48 49 50 52 54 55 56 58 59 59 59 58 56 54 51 50 49 47 45 43 41 41 41 41 42 42 43 44 46 49 51 53 55 56 57 57 58 60 61 62 63 62 61 60 60 61 63 66 68 70 70 69 65 60 54 48 43 40 38 37 38 39 41 41 42 41 39 37 36 34 33 33 32 32 32 32 32
29 30 30 31 31 32 32 33 33 33 33 35 35 36 36 36 37 38 39 40 40 42 43 46 47 48 48 49 50 52 53 54 54 54 54 53 52 52 51 49 48 47 46 45 43 43 44 44 44 44 44 44 44 45 46 48 50 53 55 58 60 61 62 63 64 65 66 66 66 65 64 65 66 67 69 72 73 73 72 67 62 57 51 46 43 41 40 41 42 43 43 43 42 41 39 37 36 35 34 34 34 34 33
30 31 31 32 32 33 33 33 33 33 34 34 35 36 36 36 37 38 39 39 40 42 45 48 50 50 49 48 48 49 50 50 49 48 47 47 46 47 47 47 47 48 48 48 48 48 50 51 52 53 52 51 51 51 51 51 52 53 55 58 61 64 66 67 67 67 66 66 67 67 68 68 69 69 70 72 74 75 74 72 69 64 59 54 50 47 45 44 45 45 46 45 45 44 43 41 39 37 36 36 36 36 36
31 32 32 32 33 33 33 33 33 34 34 34 35 36 36 37 38 39 41 42 43 45 48 51 53 53 52 51 49 49 49 48 48 47 46 46 46 46 47 47 47 47 47 49 50 52 55 56 58 59 59 59 58 57 56 55 55 55 55 57 59 63 67 69 69 69 70 71 72 72 73 73 74 74 74 74 74 74 74 74 73 71 67 63 58 54 51 50 49 49 49 49 48 47 46 44 42 41 39 38 38 38 38
32 32 33 33 33 33 33 34 34 34 34 35 35 36 36 37 38 39 40 41 43 45 47 50 53 55 55 54 54 53 53 53 51 50 48 47 47 47 47 48 49 50 50 50 52 54 58 59 59 59 60 61 60 58 57 57 56 55 56 58 59 62 66 69 71 72 74 77 79 79 79 80 81 81 79 78 76 75 75 76 76 76 75 71 67 62 58 56 54 54 54 53 52 50 49 48 46 44 43 41 41 41 41
32 32 33 34 34 34 34 34 34 34 35 35 36 37 38 39 39 40 41 42 43 44 46 48 51 53 55 56 56 56 58 56 53 50 47 44 43 43 45 49 52 55 56 56 56 57 58 57 55 54 55 57 57 56 54 51 50 52 55 57 59 61 63 67 70 72 74 77 80 83 85 85 86 85 84 81 79 77 76 76 77 77 78 77 74 70 65 62 60 59 58 57 56 54 53 51 50 48 46 45 44 44 44
32 32 33 33 34 34 34 34 34 35 35 36 38 39 41 41 42 44 45 45 45 46 48 49 50 52 54 54 54 54 54 52 49 46 43 40 39 39 41 47 53 58 60 60 59 58 57 53 49 47 48 50 50 50 47 44 44 47 51 54 56 58 60 62 65 69 73 76 79 83 88 89 90 89 87 85 83 81 79 78 78 77 78 77 76 74 71 69 66 64 63 61 60 59 57 55 54 52 50 48 47 47 47